CEB611 RPLL-RPSP

Flight info

Callsign CEB611
Flight time 0h 59m
Altitude 35000
Route HARBO1 HARBO DCT IPATA W25 BATAY BATAY1R
Aircraft A321/M-SDE3FGHIRWY/LB1

Departure

Time 2026-04-16 11:35
Airport Ninoy Aquino International Airport (RPLL)

Arrival

Time 2026-04-16 12:34
Airport Bohol-Panglao International Airport (RPSP)
Time Latitude Longitude Altitude Speed Heading
2026-04-16 11:10 14.52375 121.00793 82 ft 0 kts 44°
2026-04-16 11:24 14.52373 121.00790 82 ft 2 kts 44°
2026-04-16 11:24 14.52362 121.00780 82 ft 2 kts 44°
2026-04-16 11:24 14.52351 121.00768 82 ft 2 kts 44°
2026-04-16 11:25 14.52340 121.00758 82 ft 2 kts 44°
2026-04-16 11:25 14.52329 121.00747 82 ft 2 kts 44°
2026-04-16 11:25 14.52319 121.00736 82 ft 2 kts 44°
2026-04-16 11:25 14.52309 121.00726 82 ft 2 kts 68°
2026-04-16 11:26 14.52308 121.00710 82 ft 2 kts 114°
2026-04-16 11:26 14.52312 121.00704 82 ft 0 kts 139°
2026-04-16 11:26 14.52317 121.00700 82 ft 0 kts 135°
2026-04-16 11:28 14.52314 121.00703 82 ft 1 kts 134°
2026-04-16 11:28 14.52298 121.00719 82 ft 4 kts 134°
2026-04-16 11:29 14.52271 121.00748 82 ft 6 kts 135°
2026-04-16 11:29 14.52236 121.00777 82 ft 6 kts 159°
2026-04-16 11:29 14.52192 121.00759 82 ft 7 kts 210°
2026-04-16 11:29 14.52145 121.00773 82 ft 8 kts 137°
2026-04-16 11:30 14.52100 121.00819 82 ft 10 kts 134°
2026-04-16 11:30 14.52042 121.00879 82 ft 12 kts 135°
2026-04-16 11:30 14.51973 121.00951 82 ft 15 kts 134°
2026-04-16 11:30 14.51895 121.01032 82 ft 16 kts 135°
2026-04-16 11:31 14.51806 121.01123 82 ft 18 kts 135°
2026-04-16 11:31 14.51714 121.01218 82 ft 19 kts 135°
2026-04-16 11:31 14.51620 121.01316 82 ft 19 kts 134°
2026-04-16 11:31 14.51526 121.01413 82 ft 18 kts 135°
2026-04-16 11:32 14.51434 121.01509 82 ft 18 kts 134°
2026-04-16 11:32 14.51342 121.01604 82 ft 18 kts 134°
2026-04-16 11:32 14.51260 121.01689 82 ft 14 kts 135°
2026-04-16 11:32 14.51197 121.01754 82 ft 12 kts 135°
2026-04-16 11:33 14.51136 121.01817 82 ft 12 kts 135°
2026-04-16 11:33 14.51086 121.01861 82 ft 8 kts 159°
2026-04-16 11:33 14.51041 121.01839 82 ft 8 kts 237°
2026-04-16 11:33 14.51036 121.01784 82 ft 8 kts 302°
2026-04-16 11:34 14.51061 121.01750 82 ft 4 kts 313°
2026-04-16 11:34 14.51066 121.01745 82 ft 0 kts 314°
2026-04-16 11:34 14.51107 121.01702 82 ft 36 kts 314°
2026-04-16 11:34 14.51475 121.01321 82 ft 110 kts 315°
2026-04-16 11:35 14.52163 121.00616 122 ft 163 kts 313°
2026-04-16 11:35 14.52969 120.99810 734 ft 161 kts 314°
2026-04-16 11:35 14.53782 120.98996 1354 ft 166 kts 314°
2026-04-16 11:35 14.54592 120.98164 1959 ft 164 kts 312°
2026-04-16 11:36 14.55290 120.97200 2222 ft 172 kts 285°
2026-04-16 11:36 14.55257 120.95972 2461 ft 181 kts 245°
2026-04-16 11:36 14.54387 120.95003 2724 ft 193 kts 207°
2026-04-16 11:36 14.53013 120.94795 3006 ft 208 kts 171°
2026-04-16 11:37 14.51714 120.95525 3249 ft 227 kts 131°
2026-04-16 11:37 14.50992 120.97062 3526 ft 247 kts 108°
2026-04-16 11:37 14.50264 120.98708 3844 ft 263 kts 128°
2026-04-16 11:37 14.49008 121.00107 4388 ft 271 kts 135°
2026-04-16 11:38 14.47666 121.01501 5083 ft 274 kts 133°
2026-04-16 11:38 14.46378 121.02930 5796 ft 276 kts 130°
2026-04-16 11:38 14.45101 121.04437 6525 ft 278 kts 128°
2026-04-16 11:38 14.43875 121.05956 7263 ft 280 kts 127°
2026-04-16 11:39 14.42643 121.07524 7973 ft 283 kts 126°
2026-04-16 11:39 14.41413 121.09114 8649 ft 286 kts 126°
2026-04-16 11:39 14.40164 121.10745 9302 ft 289 kts 125°
2026-04-16 11:39 14.38918 121.12382 9946 ft 292 kts 125°
2026-04-16 11:40 14.37659 121.14043 10503 ft 298 kts 125°
2026-04-16 11:40 14.36362 121.15761 10775 ft 313 kts 125°
2026-04-16 11:40 14.34981 121.17590 11052 ft 328 kts 125°
2026-04-16 11:40 14.33543 121.19488 11374 ft 341 kts 125°
2026-04-16 11:41 14.32058 121.21448 11880 ft 345 kts 125°
2026-04-16 11:41 14.30564 121.23418 12426 ft 348 kts 125°
2026-04-16 11:41 14.29071 121.25386 12965 ft 350 kts 125°
2026-04-16 11:41 14.27574 121.27361 13488 ft 352 kts 125°
2026-04-16 11:42 14.26063 121.29356 13916 ft 357 kts 125°
2026-04-16 11:42 14.24518 121.31396 14356 ft 361 kts 125°
2026-04-16 11:42 14.22958 121.33454 14830 ft 364 kts 125°
2026-04-16 11:42 14.21401 121.35507 15290 ft 367 kts 125°
2026-04-16 11:43 14.19820 121.37594 15743 ft 370 kts 126°
2026-04-16 11:43 14.18222 121.39700 16186 ft 373 kts 126°
2026-04-16 11:43 14.16619 121.41813 16620 ft 376 kts 126°
2026-04-16 11:43 14.15010 121.43935 17052 ft 378 kts 126°
2026-04-16 11:44 14.13363 121.46102 17481 ft 381 kts 126°
2026-04-16 11:44 14.11721 121.48267 17893 ft 383 kts 126°
2026-04-16 11:44 14.10074 121.50434 18301 ft 386 kts 126°
2026-04-16 11:44 14.08404 121.52635 18708 ft 388 kts 126°
2026-04-16 11:45 14.06740 121.54825 19103 ft 390 kts 126°
2026-04-16 11:45 14.05058 121.57037 19498 ft 392 kts 126°
2026-04-16 11:45 14.03391 121.59231 19877 ft 394 kts 126°
2026-04-16 11:45 14.01676 121.61487 20255 ft 397 kts 126°
2026-04-16 11:46 14.00001 121.63691 20611 ft 399 kts 126°
2026-04-16 11:46 13.98243 121.66003 20976 ft 401 kts 127°
2026-04-16 11:46 13.96517 121.68272 21323 ft 404 kts 127°
2026-04-16 11:46 13.94784 121.70551 21660 ft 407 kts 127°
2026-04-16 11:47 13.93038 121.72844 22004 ft 409 kts 127°
2026-04-16 11:47 13.91274 121.75160 22354 ft 411 kts 127°
2026-04-16 11:47 13.89494 121.77497 22702 ft 413 kts 127°
2026-04-16 11:47 13.87614 121.79802 23031 ft 416 kts 131°
2026-04-16 11:48 13.85557 121.81905 23348 ft 418 kts 137°
2026-04-16 11:48 13.83303 121.83819 23662 ft 421 kts 142°
2026-04-16 11:48 13.80970 121.85605 23980 ft 423 kts 143°
2026-04-16 11:48 13.78556 121.87419 24295 ft 426 kts 143°
2026-04-16 11:49 13.76166 121.89211 24587 ft 428 kts 143°
2026-04-16 11:49 13.73712 121.91052 24880 ft 431 kts 143°
2026-04-16 11:49 13.71289 121.92873 25191 ft 433 kts 143°
2026-04-16 11:49 13.68805 121.94742 25498 ft 435 kts 143°
2026-04-16 11:50 13.66370 121.96575 25789 ft 437 kts 143°
2026-04-16 11:50 13.63896 121.98438 26070 ft 439 kts 143°
2026-04-16 11:50 13.61408 122.00311 26344 ft 441 kts 143°
2026-04-16 11:50 13.58903 122.02196 26618 ft 443 kts 143°
2026-04-16 11:51 13.56442 122.04051 26903 ft 445 kts 143°
2026-04-16 11:51 13.53916 122.05953 27180 ft 447 kts 143°
2026-04-16 11:51 13.51405 122.07844 27434 ft 449 kts 143°
2026-04-16 11:51 13.48850 122.09766 27700 ft 451 kts 143°
2026-04-16 11:52 13.46332 122.11660 27957 ft 453 kts 143°
2026-04-16 11:52 13.43773 122.13583 28207 ft 455 kts 143°
2026-04-16 11:52 13.41211 122.15508 28456 ft 457 kts 143°
2026-04-16 11:52 13.38654 122.17431 28694 ft 459 kts 143°
2026-04-16 11:53 13.36057 122.19381 28940 ft 461 kts 143°
2026-04-16 11:53 13.33460 122.21332 29200 ft 462 kts 143°
2026-04-16 11:53 13.30848 122.23293 29457 ft 464 kts 143°
2026-04-16 11:53 13.28253 122.25242 29735 ft 464 kts 143°
2026-04-16 11:54 13.25635 122.27209 30079 ft 463 kts 143°
2026-04-16 11:54 13.23034 122.29162 30439 ft 462 kts 143°
2026-04-16 11:54 13.20398 122.31140 30812 ft 461 kts 143°
2026-04-16 11:54 13.17817 122.33077 31165 ft 460 kts 143°
2026-04-16 11:55 13.15214 122.35029 31521 ft 459 kts 143°
2026-04-16 11:55 13.12641 122.36958 31869 ft 458 kts 144°
2026-04-16 11:55 13.10072 122.38882 32210 ft 457 kts 144°
2026-04-16 11:55 13.07496 122.40812 32552 ft 456 kts 144°
2026-04-16 11:56 13.04930 122.42735 32934 ft 455 kts 144°
2026-04-16 11:56 13.02385 122.44639 33299 ft 454 kts 144°
2026-04-16 11:56 12.99827 122.46554 33622 ft 454 kts 143°
2026-04-16 11:56 12.97241 122.48489 33915 ft 455 kts 143°
2026-04-16 11:57 12.94689 122.50399 34199 ft 456 kts 143°
2026-04-16 11:57 12.92129 122.52314 34485 ft 457 kts 143°
2026-04-16 11:57 12.89544 122.54247 34758 ft 458 kts 143°
2026-04-16 11:57 12.86962 122.56177 34884 ft 460 kts 143°
2026-04-16 11:58 12.84382 122.58106 34889 ft 460 kts 143°
2026-04-16 11:58 12.79176 122.61999 34889 ft 461 kts 144°
2026-04-16 11:59 12.73969 122.65887 34888 ft 460 kts 144°
2026-04-16 11:59 12.68782 122.69759 34894 ft 460 kts 144°
2026-04-16 12:00 12.63599 122.73625 34889 ft 460 kts 144°
2026-04-16 12:00 12.58421 122.77486 34893 ft 461 kts 144°
2026-04-16 12:01 12.53207 122.81375 34896 ft 461 kts 144°
2026-04-16 12:01 12.48038 122.85229 34897 ft 461 kts 144°
2026-04-16 12:02 12.40240 122.91038 34892 ft 461 kts 144°
2026-04-16 12:02 12.35037 122.94911 34897 ft 460 kts 144°
2026-04-16 12:03 12.29844 122.98769 34895 ft 460 kts 144°
2026-04-16 12:03 12.24655 123.02617 34897 ft 460 kts 144°
2026-04-16 12:04 12.19456 123.06476 34897 ft 460 kts 144°
2026-04-16 12:04 12.14249 123.10340 34896 ft 461 kts 144°
2026-04-16 12:05 12.09060 123.14191 34898 ft 460 kts 144°
2026-04-16 12:05 12.03896 123.18021 34896 ft 460 kts 144°
2026-04-16 12:06 11.98706 123.21870 34896 ft 461 kts 144°
2026-04-16 12:06 11.93490 123.25735 34896 ft 460 kts 144°
2026-04-16 12:07 11.88268 123.29602 34894 ft 460 kts 144°
2026-04-16 12:07 11.83075 123.33446 34892 ft 460 kts 144°
2026-04-16 12:08 11.77853 123.37310 34891 ft 460 kts 144°
2026-04-16 12:08 11.72673 123.41142 34890 ft 461 kts 144°
2026-04-16 12:09 11.67469 123.44990 34891 ft 460 kts 144°
2026-04-16 12:09 11.62278 123.48827 34890 ft 460 kts 144°
2026-04-16 12:10 11.57119 123.52638 34890 ft 459 kts 144°
2026-04-16 12:10 11.51930 123.56468 34892 ft 458 kts 144°
2026-04-16 12:11 11.46765 123.60279 34890 ft 458 kts 144°
2026-04-16 12:11 11.41604 123.64087 34608 ft 460 kts 144°
2026-04-16 12:12 11.38983 123.66020 33947 ft 458 kts 144°
2026-04-16 12:12 11.36399 123.67925 33261 ft 456 kts 144°
2026-04-16 12:12 11.33864 123.69795 32570 ft 455 kts 144°
2026-04-16 12:12 11.31293 123.71688 31881 ft 455 kts 144°
2026-04-16 12:13 11.28713 123.73589 31156 ft 454 kts 144°
2026-04-16 12:13 11.26170 123.75461 30413 ft 455 kts 144°
2026-04-16 12:13 11.23582 123.77368 29628 ft 456 kts 143°
2026-04-16 12:13 11.21028 123.79251 28920 ft 454 kts 143°
2026-04-16 12:14 11.18482 123.81126 28380 ft 450 kts 143°
2026-04-16 12:14 11.15934 123.82897 27856 ft 445 kts 149°
2026-04-16 12:14 11.13166 123.84266 27346 ft 440 kts 158°
2026-04-16 12:14 11.10210 123.85179 26840 ft 436 kts 167°
2026-04-16 12:15 11.07277 123.85740 26342 ft 431 kts 169°
2026-04-16 12:15 11.04328 123.86243 25834 ft 427 kts 169°
2026-04-16 12:15 11.01377 123.86737 25322 ft 423 kts 169°
2026-04-16 12:15 10.98496 123.87224 24820 ft 420 kts 169°
2026-04-16 12:16 10.95594 123.87718 24312 ft 416 kts 169°
2026-04-16 12:16 10.92761 123.88205 23813 ft 413 kts 169°
2026-04-16 12:16 10.89943 123.88693 23323 ft 410 kts 169°
2026-04-16 12:16 10.87149 123.89176 22834 ft 407 kts 169°
2026-04-16 12:17 10.84342 123.89662 22337 ft 404 kts 169°
2026-04-16 12:17 10.81515 123.90152 21835 ft 401 kts 169°
2026-04-16 12:17 10.78744 123.90633 21331 ft 400 kts 169°
2026-04-16 12:17 10.76002 123.91106 20822 ft 398 kts 169°
2026-04-16 12:18 10.73250 123.91582 20315 ft 397 kts 168°
2026-04-16 12:18 10.70547 123.92051 19819 ft 395 kts 168°
2026-04-16 12:18 10.67801 123.92529 19311 ft 394 kts 168°
2026-04-16 12:18 10.65099 123.92996 18811 ft 393 kts 168°
2026-04-16 12:19 10.62383 123.93467 18303 ft 392 kts 168°
2026-04-16 12:19 10.59692 123.93932 17790 ft 391 kts 168°
2026-04-16 12:19 10.56981 123.94403 17274 ft 391 kts 168°
2026-04-16 12:19 10.54273 123.94873 16753 ft 391 kts 168°
2026-04-16 12:20 10.51589 123.95340 16229 ft 390 kts 168°
2026-04-16 12:20 10.48929 123.95801 15723 ft 389 kts 168°
2026-04-16 12:20 10.46257 123.96263 15210 ft 388 kts 168°
2026-04-16 12:20 10.43594 123.96725 14697 ft 386 kts 168°
2026-04-16 12:21 10.40927 123.97187 14166 ft 385 kts 168°
2026-04-16 12:21 10.38279 123.97644 13665 ft 382 kts 168°
2026-04-16 12:21 10.35664 123.98096 13177 ft 379 kts 168°
2026-04-16 12:21 10.33073 123.98544 12702 ft 375 kts 168°
2026-04-16 12:22 10.30472 123.98898 12222 ft 372 kts 173°
2026-04-16 12:22 10.27923 123.99100 11758 ft 369 kts 174°
2026-04-16 12:22 10.25346 123.99281 11283 ft 365 kts 174°
2026-04-16 12:22 10.22832 123.99451 10811 ft 362 kts 174°
2026-04-16 12:23 10.20340 123.99622 10456 ft 354 kts 174°
2026-04-16 12:23 10.17888 123.99791 10296 ft 340 kts 174°
2026-04-16 12:23 10.15558 123.99952 10137 ft 327 kts 174°
2026-04-16 12:23 10.13315 124.00106 9983 ft 315 kts 173°
2026-04-16 12:24 10.11128 124.00260 9744 ft 307 kts 173°
2026-04-16 12:24 10.09001 124.00411 9436 ft 301 kts 173°
2026-04-16 12:24 10.06908 124.00559 9033 ft 300 kts 174°
2026-04-16 12:24 10.04818 124.00710 8631 ft 299 kts 174°
2026-04-16 12:25 10.02736 124.00857 8242 ft 298 kts 174°
2026-04-16 12:25 10.00645 124.01004 7860 ft 296 kts 174°
2026-04-16 12:25 9.98590 124.01148 7492 ft 294 kts 174°
2026-04-16 12:25 9.96532 124.01294 7130 ft 291 kts 174°
2026-04-16 12:26 9.94497 124.01437 6775 ft 289 kts 174°
2026-04-16 12:26 9.92494 124.01576 6412 ft 284 kts 175°
2026-04-16 12:26 9.90521 124.01666 6043 ft 279 kts 184°
2026-04-16 12:26 9.88702 124.01028 5665 ft 273 kts 217°
2026-04-16 12:27 9.87332 123.99719 5360 ft 265 kts 226°
2026-04-16 12:27 9.86055 123.98390 5038 ft 260 kts 226°
2026-04-16 12:27 9.84914 123.97219 4745 ft 255 kts 226°
2026-04-16 12:27 9.83664 123.95957 4432 ft 249 kts 225°
2026-04-16 12:28 9.82441 123.94733 4148 ft 243 kts 225°
2026-04-16 12:28 9.81221 123.93522 3855 ft 238 kts 225°
2026-04-16 12:28 9.80043 123.92355 3564 ft 233 kts 225°
2026-04-16 12:28 9.78909 123.91234 3496 ft 223 kts 225°
2026-04-16 12:29 9.77839 123.90174 3521 ft 206 kts 225°
2026-04-16 12:29 9.76813 123.89159 3448 ft 203 kts 225°
2026-04-16 12:29 9.75776 123.88185 3389 ft 202 kts 220°
2026-04-16 12:29 9.74612 123.87358 3290 ft 201 kts 212°
2026-04-16 12:30 9.73398 123.86623 3162 ft 203 kts 210°
2026-04-16 12:30 9.72174 123.85901 3044 ft 203 kts 210°
2026-04-16 12:30 9.70947 123.85178 2892 ft 203 kts 210°
2026-04-16 12:30 9.69758 123.84473 2701 ft 190 kts 210°
2026-04-16 12:31 9.68640 123.83808 2366 ft 179 kts 210°
2026-04-16 12:31 9.67594 123.83186 2109 ft 165 kts 210°
2026-04-16 12:31 9.66649 123.82620 1958 ft 156 kts 210°
2026-04-16 12:31 9.65688 123.82046 1720 ft 156 kts 210°
2026-04-16 12:32 9.64745 123.81484 1507 ft 156 kts 210°
2026-04-16 12:32 9.63808 123.80924 1305 ft 156 kts 209°
2026-04-16 12:32 9.62867 123.80363 1098 ft 154 kts 209°
2026-04-16 12:32 9.61942 123.79811 887 ft 153 kts 209°
2026-04-16 12:33 9.61027 123.79266 681 ft 152 kts 209°
2026-04-16 12:33 9.60118 123.78722 473 ft 150 kts 209°
2026-04-16 12:33 9.59221 123.78169 264 ft 150 kts 210°
2026-04-16 12:33 9.58323 123.77620 70 ft 148 kts 210°
2026-04-16 12:34 9.57547 123.77160 48 ft 122 kts 211°
2026-04-16 12:34 9.57035 123.76852 48 ft 42 kts 210°
2026-04-16 12:34 9.56941 123.76811 48 ft 8 kts 162°
2026-04-16 12:34 9.56901 123.76863 48 ft 10 kts 118°
2026-04-16 12:35 9.56865 123.76929 48 ft 11 kts 119°
2026-04-16 12:35 9.56840 123.76975 48 ft 5 kts 111°
2026-04-16 12:35 9.56846 123.77012 47 ft 6 kts 49°
2026-04-16 12:35 9.56883 123.77039 48 ft 4 kts 34°
2026-04-16 12:36 9.56895 123.77052 48 ft 2 kts 69°
2026-04-16 12:36 9.56891 123.77073 48 ft 3 kts 112°
2026-04-16 12:36 9.56877 123.77100 48 ft 4 kts 119°
2026-04-16 12:36 9.56861 123.77126 48 ft 1 kts 121°
2026-04-16 12:37 9.56857 123.77135 48 ft 0 kts 121°